Stations météo

réclame
Mon MeteoGroup
Montpellier, France (7643): Température de l'air & dewpoint: 08.08.2018 23:00:00 - 14.08.2018 23:00:00 (CEST)Montpellier, France (7643): Température de l'air 5cm: 08.08.2018 23:00:00 - 14.08.2018 23:00:00 (CEST)Montpellier, France (7643): Température de l'air -20cm & Température de l'air -100cm: 08.08.2018 23:00:00 - 14.08.2018 23:00:00 (CEST)Montpellier, France (7643): Vitesse du vent & gusts: 08.08.2018 23:00:00 - 14.08.2018 23:00:00 (CEST)Montpellier, France (7643): Direction du vent: 08.08.2018 23:00:00 - 14.08.2018 23:00:00 (CEST)Montpellier, France (7643): reduced air pressure: 08.08.2018 23:00:00 - 14.08.2018 23:00:00 (CEST)Montpellier, France (7643): visibility: 08.08.2018 23:00:00 - 14.08.2018 23:00:00 (CEST)Montpellier, France (7643): Ensoleillement: 08.08.2018 23:00:00 - 14.08.2018 23:00:00 (CEST)Montpellier, France (7643): Quantités de précipitations: 08.08.2018 23:00:00 - 14.08.2018 23:00:00 (CEST)
Date & Time tt [°C] td [°C] tt 5cm [°C] tt -20cm [°C] tt -100cm [°C] ff [km/h] ff [knt] fx [km/h] fx [knt] dd ppp [hPa] vv [km] sd [min] rr [mm]
14.08.2018 23:00:00 24,5 13,7 21,8 27,1 24,6 13 7 31 17 NW 1016,7 60 0 0,0
14.08.2018 22:00:00 25,6 13,8 23,2 27,4 24,6 22 12 37 20 NW 1016,5 60 0 0,0
14.08.2018 21:00:00 26,6 13,3 24,7 27,6 24,6 24 13 45 25 WNW 1015,9 60 27 0,0
14.08.2018 20:00:00 29,1 13,7 27,9 27,7 24,6 28 15 47 25 NW 1014,6 43 60 0,0
14.08.2018 19:00:00 30,2 13,0 29,9 27,7 24,6 29 16 41 22 NW 1013,9 60 41 0,0
14.08.2018 18:00:00 30,6 12,0 31,0 27,6 24,6 21 12 39 21 NNW 1013,9 46 25 0,0
14.08.2018 17:00:00 30,3 11,8 30,5 27,5 24,6 25 13 42 23 N 1013,9 60 32 0,0
14.08.2018 16:00:00 29,3 12,3 30,5 27,2 24,6 27 15 46 25 N 1014,1 60 32 0,0
14.08.2018 15:00:00 30,3 12,2 32,5 26,7 24,6 21 11 42 23 N 1014,4 60 37 0,0
14.08.2018 14:00:00 29,0 12,4 32,8 26,2 24,6 20 11 43 23 NNW 1014,7 37 42 0,0
14.08.2018 13:00:00 28,4 11,9 35,2 25,7 24,6 27 15 54 29 NNW 1015,2 26 60 0,0
14.08.2018 12:00:00 27,3 11,3 32,2 25,4 24,7 30 16 46 25 NW 1015,8 29 60 0,0
14.08.2018 11:00:00 26,3 12,4 31,6 25,2 24,6 28 15 44 24 WNW 1016,1 27 58 0,0
14.08.2018 10:00:00 26,1 12,9 28,6 25,2 24,6 24 13 42 23 NW 1016,4 23 60 0,0
14.08.2018 09:00:00 24,2 12,8 22,2 25,3 24,7 26 14 40 22 NW 1016,2 23 60 0,0
14.08.2018 08:00:00 23,7 11,7 20,3 25,6 24,6 19 10 38 21 NW 1015,6 23 50 0,0
14.08.2018 07:00:00 22,7 11,1 18,3 25,8 24,6 27 14 42 23 WNW 1015,3 51 0 0,0
14.08.2018 06:00:00 21,8 14,4 17,9 26,0 24,6 11 6 31 17 NW 1015,0 60 0 0,0
14.08.2018 05:00:00 21,5 14,9 17,9 26,4 24,7 15 8 24 13 W 1014,9 60 0 0,0
14.08.2018 04:00:00 21,8 15,4 20,1 26,6 24,7 18 10 25 13 W 1014,6 60 0 0,0
14.08.2018 03:00:00 23,1 15,2 20,8 26,9 24,7 14 8 27 14 W 1014,4 60 0 0,0
14.08.2018 02:00:00 24,0 14,7 22,1 27,2 24,7 20 11 34 18 WNW 1014,9 60 0 0,0
14.08.2018 01:00:00 24,2 14,6 21,6 27,5 24,7 18 10 29 16 WNW 1014,7 60 0 0,0
14.08.2018 00:00:00 24,7 14,5 21,4 27,9 24,7 22 12 31 17 WNW 1014,3 60 0 0,0
13.08.2018 23:00:00 24,9 15,2 21,1 28,2 24,7 13 7 19 11 WNW 1013,9 60 0 0,0
13.08.2018 22:00:00 23,1 18,4 21,2 28,5 24,7 7 4 31 17 N 1013,4 45 0 0,0
13.08.2018 21:00:00 25,9 18,8 24,2 28,8 24,7 8 4 21 12 N 1012,8 55 28 0,0
13.08.2018 20:00:00 26,4 19,8 25,5 29,0 24,7 13 7 19 10 SW 1012,1 48 8 0,0
13.08.2018 19:00:00 26,8 19,9 28,4 29,0 24,7 11 6 19 11 SSW 1011,8 53 41 0,0
13.08.2018 18:00:00 26,7 20,1 29,6 28,9 24,7 16 9 23 12 SSW 1011,8 48 41 0,0
13.08.2018 17:00:00 27,3 19,9 34,1 28,6 24,7 16 9 23 12 SSW 1012,1 41 60 0,0
13.08.2018 16:00:00 27,2 20,5 36,8 28,1 24,7 14 8 21 12 S 1012,6 46 60 0,0
13.08.2018 15:00:00 27,2 20,3 38,9 27,4 24,6 14 8 20 11 SSE 1013,2 48 58 0,0
13.08.2018 14:00:00 26,5 19,6 39,0 26,8 24,7 11 6 21 11 SE 1013,7 20 60 0,0
13.08.2018 13:00:00 26,6 20,0 31,0 26,3 24,7 10 5 17 9 SE 1014,1 19 46 0,0
13.08.2018 12:00:00 24,7 18,6 30,2 25,9 24,7 12 7 21 11 E 1014,4 58 56 0,0
13.08.2018 11:00:00 25,5 19,2 27,3 25,8 24,7 13 7 22 12 E 1014,2 20 49 0,0
13.08.2018 10:00:00 23,9 18,8 27,6 25,7 24,7 15 8 25 13 NE 1013,7 60 60 0,0
13.08.2018 09:00:00 22,3 18,7 19,9 25,8 24,7 11 6 18 10 NNW 1013,9 19 46 0,0
13.08.2018 08:00:00 20,4 18,3 17,9 26,0 24,7 9 5 11 6 NW 1013,1 36 0 0,0
13.08.2018 07:00:00 19,6 17,7 17,8 26,3 24,7 0 0 16 9 N 1013,2 58 0 0,0
13.08.2018 06:00:00 19,9 18,0 18,8 26,5 24,7 14 8 24 13 NE 1012,7 51 0 0,0
13.08.2018 05:00:00 20,5 18,4 19,9 26,7 24,7 10 5 23 12 NE 1013,2 50 0 0,0
13.08.2018 04:00:00 20,8 18,6 19,8 27,0 24,7 17 9 23 13 W 1013,7 42 0 0,0
13.08.2018 03:00:00 20,5 18,4 18,7 27,3 24,7 13 7 23 12 WNW 1013,7 20 0 0,4
13.08.2018 02:00:00 19,2 17,5 18,6 27,7 24,8 16 8 32 17 NE 1012,8 56 0 0,0
13.08.2018 01:00:00 19,3 17,6 18,9 28,1 24,7 17 9 45 24 NE 1013,3 34 0 7,5
13.08.2018 00:00:00 22,2 16,2 23,6 28,3 24,8 22 12 44 24 S 1015,1 18 0 0,0
12.08.2018 23:00:00 26,0 23,5 25,5 28,4 24,7 25 14 36 19 SE 1013,7 20 0 0,0
12.08.2018 22:00:00 26,0 23,3 25,5 28,7 24,8 23 12 29 15 SSE 1014,6 20 0 0,0
12.08.2018 21:00:00 26,0 23,1 25,9 28,9 24,8 21 11 34 18 S 1015,0 23 0 0,0
12.08.2018 20:00:00 26,0 23,1 26,6 29,0 24,8 24 13 31 17 SSE 1014,0 21 0 0,0
12.08.2018 19:00:00 26,4 22,9 28,2 29,0 24,8 17 9 24 13 SSE 1014,3 25 5 0,0
12.08.2018 18:00:00 26,4 22,5 29,6 28,9 24,8 16 8 26 14 S 1014,8 20 28 0,0
12.08.2018 17:00:00 26,9 21,6 32,4 28,4 24,8 16 9 31 17 S 1015,3 41 52 0,0
12.08.2018 16:00:00 27,4 22,4 37,7 27,8 24,7 19 11 26 14 SE 1015,7 17 58 0,0
12.08.2018 15:00:00 27,2 20,0 40,2 27,1 24,8 11 6 17 9 SE 1016,4 59 60 0,0
12.08.2018 14:00:00 27,8 19,8 40,3 26,3 24,8 13 7 18 10 SSE 1016,9 20 60 0,0
12.08.2018 13:00:00 28,1 14,0 39,3 25,7 24,8 16 9 20 11 SSE 1017,3 10 60 0,0
12.08.2018 12:00:00 28,3 14,2 33,1 25,2 24,8 12 6 22 12 E 1017,5 6 60 0,0
12.08.2018 11:00:00 27,3 13,3 30,0 25,0 24,8 14 8 20 11 E 1017,4 13 60 0,0
12.08.2018 10:00:00 24,9 13,1 26,7 25,0 24,8 16 9 22 12 NE 1017,4 60 60 0,0
12.08.2018 09:00:00 22,3 13,4 19,7 25,1 24,8 9 5 15 8 NNE 1017,6 60 60 0,0
12.08.2018 08:00:00 19,3 14,1 14,4 25,3 24,8 8 4 10 6 N 1017,5 60 53 0,0
12.08.2018 07:00:00 16,6 12,9 13,5 25,5 24,8 9 5 15 8 N 1017,4 60 0 0,0
12.08.2018 06:00:00 17,1 12,4 13,4 25,8 24,8 9 5 12 6 NNE 1017,4 60 0 0,0
12.08.2018 05:00:00 17,5 12,6 13,7 26,1 24,8 6 3 7 4 N 1017,5 60 0 0,0
12.08.2018 04:00:00 19,3 11,6 14,2 26,4 24,8 6 3 9 5 NNW 1017,8 59 0 0,0
12.08.2018 03:00:00 19,9 12,4 14,6 26,8 24,9 4 2 13 7 N 1018,0 60 0 0,0
12.08.2018 02:00:00 19,9 12,9 15,5 27,1 24,8 10 5 13 7 NNE 1018,4 60 0 0,0
12.08.2018 01:00:00 20,6 12,8 16,0 27,4 24,9 11 6 13 7 ENE 1018,8 60 0 0,0
12.08.2018 00:00:00 20,7 15,5 16,8 27,7 24,8 9 5 12 6 N 1019,0 56 0 0,0
11.08.2018 23:00:00 22,5 16,1 18,2 28,1 24,9 2 1 15 8 NE 1019,3 60 0 0,0
11.08.2018 22:00:00 24,7 13,3 21,3 28,4 24,9 9 5 20 11 NW 1019,0 60 0 0,0
11.08.2018 21:00:00 25,9 15,0 22,9 28,7 24,9 14 7 26 14 W 1018,2 60 31 0,0
11.08.2018 20:00:00 27,2 17,4 26,2 28,8 24,9 18 10 24 13 SW 1018,1 58 60 0,0
11.08.2018 19:00:00 28,7 13,0 30,3 28,8 24,9 14 8 20 11 SW 1018,2 49 60 0,0
11.08.2018 18:00:00 29,0 13,2 34,4 28,5 24,9 15 8 22 12 SSW 1018,4 56 60 0,0
11.08.2018 17:00:00 28,6 14,4 29,2 28,2 24,9 16 9 27 15 SSW 1019,0 60 45 0,0
11.08.2018 16:00:00 29,6 13,8 38,1 27,5 24,9 14 8 25 13 SSW 1019,7 19 58 0,0
11.08.2018 15:00:00 29,2 13,0 39,7 26,8 24,9 17 9 22 12 SSW 1020,5 60 60 0,0
11.08.2018 14:00:00 30,3 10,8 36,2 26,2 24,9 5 3 20 11 NNE 1021,1 10 60 0,0
11.08.2018 13:00:00 29,0 10,6 33,9 25,7 24,9 6 4 26 14 NE 1021,6 19 60 0,0
11.08.2018 12:00:00 27,4 11,0 32,4 25,3 24,9 14 8 25 14 NNE 1022,3 20 60 0,0
11.08.2018 11:00:00 26,5 11,0 31,7 25,1 24,9 14 8 24 13 NNE 1022,6 58 60 0,0
11.08.2018 10:00:00 25,1 12,3 30,0 25,0 24,9 14 7 21 11 NNE 1022,6 56 60 0,0
11.08.2018 09:00:00 22,6 12,5 20,3 25,1 24,9 6 3 10 5 N 1022,7 53 60 0,0
11.08.2018 08:00:00 19,9 12,9 13,7 25,3 24,9 6 4 9 5 N 1022,4 60 54 0,0
11.08.2018 07:00:00 17,9 11,0 13,6 25,7 25,0 2 1 20 11 WNW 1022,4 48 0 0,0
11.08.2018 06:00:00 17,8 10,4 14,8 26,0 25,0 13 7 17 9 NNW 1022,1 60 0 0,0
11.08.2018 05:00:00 19,4 10,4 15,2 26,2 24,9 13 7 16 9 NW 1022,2 60 0 0,0
11.08.2018 04:00:00 19,0 12,7 15,2 26,5 24,9 6 4 13 7 N 1022,4 60 0 0,0
11.08.2018 03:00:00 19,3 13,9 15,7 26,8 25,0 5 3 11 6 N 1022,4 60 0 0,0
11.08.2018 02:00:00 21,4 14,1 16,6 27,1 24,9 7 4 11 6 NNW 1022,6 60 0 0,0
11.08.2018 01:00:00 21,5 17,3 17,4 27,4 25,0 7 4 11 6 NNW 1022,7 59 0 0,0
11.08.2018 00:00:00 21,4 18,0 19,7 27,7 25,0 10 5 15 8 N 1022,3 55 0 0,0
10.08.2018 23:00:00 22,2 18,8 19,7 28,0 25,0 4 2 13 7 SE 1021,8 60 0 0,0
10.08.2018 22:00:00 23,8 18,9 20,2 28,2 25,0 9 5 14 7 S 1021,5 60 0 0,0
10.08.2018 21:00:00 24,7 17,4 21,7 28,5 25,0 5 3 18 10 SSW 1021,4 60 32 0,0
10.08.2018 20:00:00 26,9 16,2 25,9 28,6 25,0 11 6 22 12 SSW 1021,2 42 60 0,0
10.08.2018 19:00:00 27,7 14,3 29,7 28,6 25,0 16 8 28 15 SSW 1021,3 47 60 0,0
10.08.2018 18:00:00 28,2 15,1 32,9 28,4 25,0 19 11 27 15 SW 1021,3 37 60 0,0
10.08.2018 17:00:00 27,9 15,5 34,5 28,1 25,0 21 11 30 16 SW 1021,7 43 60 0,0
10.08.2018 16:00:00 28,2 15,5 35,8 27,6 25,0 22 12 31 17 SSW 1022,0 47 60 0,0
10.08.2018 15:00:00 29,0 14,0 36,2 27,0 25,0 14 8 24 13 SSE 1022,1 14 60 0,0
10.08.2018 14:00:00 28,9 13,6 34,1 26,5 25,0 9 5 25 13 NNE 1022,2 20 60 0,0
10.08.2018 13:00:00 27,8 13,7 32,3 26,0 25,0 11 6 26 14 N 1022,7 60 60 0,0
10.08.2018 12:00:00 26,3 13,4 30,3 25,7 25,0 18 10 29 16 NNE 1022,9 60 60 0,0
10.08.2018 11:00:00 24,9 13,4 27,6 25,6 25,0 18 10 29 15 N 1023,2 60 60 0,0
10.08.2018 10:00:00 23,4 13,8 27,4 25,6 25,0 19 10 29 16 N 1023,3 60 60 0,0
10.08.2018 09:00:00 21,6 15,9 20,6 25,6 25,0 13 7 16 9 N 1023,3 59 60 0,0
10.08.2018 08:00:00 20,2 15,6 15,7 25,9 25,0 8 4 10 6 NW 1022,9 48 54 0,0
10.08.2018 07:00:00 17,6 14,5 15,3 26,1 25,0 4 2 12 6 N 1022,2 60 0 0,0
10.08.2018 06:00:00 19,5 14,3 16,1 26,3 25,0 10 5 16 9 NW 1022,2 60 0 0,0
10.08.2018 05:00:00 18,8 15,3 16,2 26,5 25,0 10 5 12 7 NW 1021,8 60 0 0,0
10.08.2018 04:00:00 19,3 16,0 17,6 26,7 25,0 4 2 9 5 N 1021,5 60 0 0,0
10.08.2018 03:00:00 20,3 17,1 17,6 27,0 25,0 6 4 10 6 NW 1021,2 57 0 0,0
10.08.2018 02:00:00 20,7 19,2 17,7 27,2 25,0 3 2 8 5 NW 1021,0 43 0 0,0
10.08.2018 01:00:00 20,1 18,6 18,9 27,5 25,0 8 5 11 6 NNE 1020,7 47 0 0,0
10.08.2018 00:00:00 21,5 18,5 19,1 27,7 25,0 6 3 10 5 NW 1020,8 60 0 0,0
09.08.2018 23:00:00 22,0 18,8 20,6 27,9 25,0 9 5 13 7 NW 1021,0 60 0 0,0
09.08.2018 22:00:00 21,9 18,9 20,9 28,1 25,0 6 4 14 8 NNW 1020,5 60 0 0,0
09.08.2018 21:00:00 21,9 19,1 21,0 28,3 25,0 14 7 21 11 N 1019,4 60 0 0,0
09.08.2018 20:00:00 21,9 19,5 21,4 28,6 25,0 11 6 16 9 N 1018,0 60 0 0,0
09.08.2018 19:00:00 22,1 19,6 21,1 28,8 25,0 11 6 17 9 NNW 1018,1 58 0 0,0
09.08.2018 18:00:00 21,5 19,1 20,8 29,1 25,0 6 4 16 9 N 1018,9 59 0 0,4
09.08.2018 17:00:00 21,8 19,7 21,4 29,3 25,0 11 6 31 17 NNE 1017,9 16 0 0,2
09.08.2018 16:00:00 20,9 19,2 20,5 29,5 25,0 28 15 46 25 NE 1016,8 2,9 0 3,9
09.08.2018 15:00:00 24,5 18,9 25,0 29,3 24,9 25 14 40 22 NNE 1015,8 59 8 0,0
09.08.2018 14:00:00 30,7 19,1 33,6 29,0 25,0 22 12 47 26 NNW 1014,5 20 41 0,0
09.08.2018 13:00:00 29,3 18,1 30,0 28,7 25,0 34 18 61 33 WSW 1013,2 12 51 0,0
09.08.2018 12:00:00 27,9 24,3 26,0 28,4 25,0 26 14 47 25 S 1013,6 12 14 0,2
09.08.2018 11:00:00 28,7 24,0 33,1 28,2 24,9 34 18 49 26 S 1012,9 10 55 0,0
09.08.2018 10:00:00 28,4 24,4 28,0 28,2 24,9 27 15 44 24 S 1012,9 9 56 0,0
09.08.2018 09:00:00 27,1 23,8 26,5 28,3 24,9 31 17 46 25 S 1013,0 14 0 0,0
09.08.2018 08:00:00 26,7 24,0 25,9 28,4 24,9 33 18 46 25 SSE 1012,5 12 9 0,0
09.08.2018 07:00:00 26,5 24,0 25,8 28,5 24,9 32 17 48 26 SSE 1012,1 13 0 0,0
09.08.2018 06:00:00 26,7 24,0 25,0 28,7 24,9 35 19 46 25 SSE 1012,2 10 0 0,0
09.08.2018 05:00:00 26,6 23,7 25,3 28,9 24,9 37 20 49 26 SSE 1012,3 15 0 0,0
09.08.2018 04:00:00 27,0 23,9 26,4 29,0 24,9 35 19 45 24 SE 1012,5 19 0 0,0
09.08.2018 03:00:00 27,1 23,8 26,3 29,2 24,9 30 16 41 22 SE 1012,7 21 0 0,0
09.08.2018 02:00:00 27,1 24,0 26,2 29,4 24,9 28 15 39 21 SE 1013,1 20 0 0,0
09.08.2018 01:00:00 27,1 23,6 26,0 29,7 24,9 25 14 34 18 SE 1013,7 23 0 0,0
09.08.2018 00:00:00 27,0 23,5 25,9 29,9 24,9 22 12 31 17 SSE 1014,4 24 0 0,0
08.08.2018 23:00:00 27,0 23,7 26,0 30,2 24,9 20 11 26 14 SSE 1014,4 22 0 0,0

tt = Température de l'air
td = dewpoint
tt 5cm = Température de l'air 5cm
tt -20cm = Température de l'air -20cm
tt -100cm = Température de l'air -100cm
ff = Vitesse du vent
fx = gusts
dd = Direction du vent
ppp = reduced air pressure
vv = visibility
sd = Ensoleillement
rr = Quantités de précipitations

stations d'obs. à proximité